Volver al catálogo

DMSP 5D-2 F13 DEB

ActivoSSO
NORAD 40560·DEBRIS·🇺🇸 United States

Lanzado Mar 24, 1995 desde Vandenberg Space Force Base

Loading…

Próximos Pases (próximas 24 horas)

TLE

ActualizadoSource: Space-Track

Época: Sep 14, 2026, 02:08 UTC

1 40560U 95015DT  26257.08905264  .00003258  00000-0  92850-3 0  9996
2 40560  98.5991 302.3105 0008800 312.8812  47.1640 14.45906879596277

Sigue DMSP 5D-2 F13 DEB en tiempo real con AllMySat

Download on the App Store